Weather History for Owen Roberts, Cayman Islands

Change the Weather History Date:

Monday, August 18, 2014

  Actual Average Record
Temperature  
Mean Temperature 85 °F -  
Max Temperature 90 °F 87 °F 91 °F (2001)
Min Temperature 80 °F 78 °F 77 °F (2003)
Cooling Degree Days 20    
Growing Degree Days 35 (Base 50)    
Moisture  
Dew Point 78 °F    
Average Humidity 79    
Maximum Humidity 94    
Minimum Humidity 20    
Precipitation  
Precipitation 0.12 in - - ()
Sea Level Pressure  
Sea Level Pressure 29.96 in    
Wind  
Wind Speed 4 mph ()    
Max Wind Speed 8 mph    
Max Gust Speed -    
Visibility 6.2 miles    
Events Rain , Thunderstorm    
Averages and records for this station are not official NWS values.
T = Trace of Precipitation, MM = Missing Value Source: Averaged Metar Reports

Daily Weather History Graph

Daily Weather History Graph

Search for Another Location

Airport:

Trip Planner

Search our weather history database for the weather conditions in past years. The results will help you decide how hot, cold, wet, or windy it might be!

Date:

Astronomy

Aug. 18, 2014 Rise Set
Actual Time 6:07 AM EST 6:51 PM EST
Civil Twilight 5:44 AM EST 7:13 PM EST
Nautical Twilight 5:17 AM EST 7:40 PM EST
Astronomical Twilight 4:50 AM EST 8:07 PM EST
Moon 12:23 AM EST (8/18) 1:40 PM EST (8/18)
Length of Visible Light 13h 29m
Length of Day
12h 44m
Last Quarter, 38% of the Moon is Illuminated
Aug 18
Last Quarter
Aug 25
New
Sep 2
First Quarter
Sep 8
Full
Sep 15
Last Quarter

Hourly Weather History & Observations

Time (EST) Temp. Heat Index Dew Point Humidity Pressure Visibility Wind Dir Wind Speed Gust Speed Precip Events Conditions
6:15 AM 84.2 °F 98.3 °F 80.6 °F 89% 29.95 in 6.2 mi Variable 2.3 mph - N/A   Partly Cloudy
7:00 AM 84 °F - 80 °F 86% 29.98 in 6 mi East 4.6 mph - - Thunderstorm Thunderstorm
7:00 AM 84.2 °F 98.3 °F 80.6 °F 89% 29.98 in 6.2 mi East 4.6 mph - N/A Thunderstorm Thunderstorm
8:00 AM 80.6 °F - 35.6 °F 20% 29.98 in 6.2 mi ESE 4.6 mph - N/A Rain , Thunderstorm Light Thunderstorms and Rain
9:00 AM 82.4 °F 94.0 °F 80.6 °F 94% 29.98 in 6.2 mi Variable 2.3 mph - N/A   Partly Cloudy
10:00 AM 84.2 °F 100.6 °F 82.4 °F 94% 30.01 in 6.2 mi SE 4.6 mph - N/A   Partly Cloudy
11:00 AM 89.6 °F 111.1 °F 82.4 °F 79% 29.98 in 6.2 mi ESE 5.8 mph - N/A   Partly Cloudy
12:00 PM 89.6 °F 111.1 °F 82.4 °F 79% 29.98 in 6.2 mi ESE 8.1 mph - N/A   Scattered Clouds
1:00 PM 90 °F - 81 °F 69% 29.97 in 6 mi SE 8.1 mph - -   Partly Cloudy
1:00 PM 89.6 °F 108.2 °F 80.6 °F 75% 29.95 in 6.2 mi SE 8.1 mph - N/A   Partly Cloudy
2:00 PM 89.6 °F 108.2 °F 80.6 °F 75% 29.95 in 6.2 mi SE 8.1 mph - N/A   Partly Cloudy
3:00 PM 89.6 °F 108.2 °F 80.6 °F 75% 29.92 in 6.2 mi SE 8.1 mph - N/A   Partly Cloudy
4:00 PM 89.6 °F 104.7 °F 78.8 °F 70% 29.92 in 6.2 mi SE 5.8 mph - N/A   Partly Cloudy
5:00 PM 87.8 °F 102.5 °F 78.8 °F 75% 29.92 in 6.2 mi SE 8.1 mph - N/A   Scattered Clouds
6:00 PM 87.8 °F 104.9 °F 80.6 °F 79% 29.92 in 6.2 mi SE 5.8 mph - N/A   Mostly Cloudy
7:00 PM 86 °F - 80 °F 78% 29.94 in 6 mi ESE 4.6 mph - -   Scattered Clouds
7:00 PM 86.0 °F 101.9 °F 80.6 °F 84% 29.92 in 6.2 mi ESE 4.6 mph - N/A   Partly Cloudy
8:00 PM 84.2 °F 98.3 °F 80.6 °F 89% 29.95 in 6.2 mi East 3.5 mph - N/A   Partly Cloudy
9:00 PM 84.2 °F 98.3 °F 80.6 °F 89% 29.98 in 6.2 mi East 3.5 mph - N/A   Partly Cloudy
10:00 PM 86.0 °F 101.9 °F 80.6 °F 84% 29.98 in 6.2 mi East 6.9 mph - N/A   Partly Cloudy